| time (UTC) | temp F | wind direction | speed MPH | gust MPH | rain 1hr in | rain 24hr in | rain mn in | humidity % | barometer mb |
| 20260901104024 | 72 | 0 | 0.0 | 1.0 | 0.00 | 0.01 | 0.00 | 95 | 1015.6 |
| 20260901103525 | 72 | 0 | 0.0 | 1.0 | 0.00 | 0.01 | 0.00 | 95 | 1015.6 |
| 20260901103046 | 72 | 0 | 0.0 | 1.0 | 0.00 | 0.01 | 0.00 | 95 | 1015.6 |
| 20260901102528 | 72 | 0 | 0.0 | 1.0 | 0.00 | 0.01 | 0.00 | 95 | 1015.5 |
| 20260901102025 | 72 | 0 | 0.0 | 1.0 | 0.00 | 0.01 | 0.00 | 95 | 1015.6 |
| 20260901101559 | 72 | 0 | 0.0 | 1.0 | 0.00 | 0.01 | 0.00 | 95 | 1015.5 |
| 20260901101027 | 72 | 0 | 0.0 | 1.0 | 0.00 | 0.01 | 0.00 | 95 | 1015.4 |
| 20260901100526 | 72 | 0 | 0.0 | 1.0 | 0.00 | 0.01 | 0.00 | 95 | 1015.3 |
| 20260901100051 | 72 | 0 | 0.0 | 1.0 | 0.00 | 0.01 | 0.00 | 95 | 1015.3 |
| 20260901095527 | 72 | 237 | 0.0 | 1.0 | 0.00 | 0.01 | 0.00 | 95 | 1015.3 |
| 20260901095025 | 72 | 0 | 0.0 | 1.0 | 0.00 | 0.01 | 0.00 | 95 | 1015.3 |
| 20260901094547 | 72 | 238 | 0.0 | 1.0 | 0.00 | 0.01 | 0.00 | 95 | 1015.4 |
| 20260901094025 | 72 | 215 | 0.0 | 2.0 | 0.00 | 0.01 | 0.00 | 95 | 1015.4 |
| 20260901093524 | 72 | 0 | 0.0 | 2.0 | 0.00 | 0.01 | 0.00 | 95 | 1015.6 |
| 20260901093046 | 72 | 225 | 0.0 | 1.0 | 0.00 | 0.01 | 0.00 | 95 | 1015.7 |
| 20260901092525 | 72 | 248 | 0.0 | 1.0 | 0.00 | 0.01 | 0.00 | 95 | 1015.8 |
| 20260901092027 | 72 | 0 | 0.0 | 1.0 | 0.00 | 0.01 | 0.00 | 95 | 1015.9 |
| 20260901091556 | 72 | 0 | 0.0 | 1.0 | 0.00 | 0.01 | 0.00 | 95 | 1015.8 |
| 20260901091028 | 72 | 0 | 0.0 | 1.0 | 0.00 | 0.01 | 0.00 | 95 | 1015.8 |
| 20260901090529 | 72 | 0 | 0.0 | 1.0 | 0.00 | 0.01 | 0.00 | 95 | 1015.8 |
| 20260901090046 | 72 | 0 | 0.0 | 1.0 | 0.00 | 0.01 | 0.00 | 95 | 1015.8 |
| 20260901085523 | 72 | 0 | 0.0 | 1.0 | 0.00 | 0.01 | 0.00 | 95 | 1015.8 |
| 20260901085026 | 72 | 0 | 0.0 | 1.0 | 0.00 | 0.01 | 0.00 | 95 | 1015.7 |
| 20260901084544 | 72 | 0 | 0.0 | 1.0 | 0.00 | 0.01 | 0.00 | 95 | 1015.9 |
| 20260901084027 | 72 | 234 | 0.0 | 1.0 | 0.00 | 0.01 | 0.00 | 95 | 1015.8 |
| 20260901083528 | 72 | 0 | 0.0 | 1.0 | 0.00 | 0.01 | 0.00 | 95 | 1015.9 |
| 20260901083054 | 72 | 0 | 0.0 | 1.0 | 0.00 | 0.01 | 0.00 | 95 | 1015.8 |
| 20260901082527 | 72 | 0 | 0.0 | 3.0 | 0.00 | 0.01 | 0.00 | 95 | 1015.8 |
| 20260901082028 | 72 | 224 | 0.0 | 3.0 | 0.00 | 0.01 | 0.00 | 95 | 1015.7 |
| 20260901081555 | 72 | 0 | 0.0 | 3.0 | 0.00 | 0.01 | 0.00 | 95 | 1015.6 |
| 20260901081026 | 72 | 240 | 0.0 | 3.0 | 0.00 | 0.01 | 0.00 | 95 | 1015.7 |
| 20260901080524 | 72 | 272 | 1.0 | 3.0 | 0.00 | 0.01 | 0.00 | 95 | 1015.7 |
| 20260901080139 | 72 | 246 | 0.0 | 3.0 | 0.00 | 0.01 | 0.00 | 95 | 1015.6 |
| 20260901075524 | 72 | 0 | 0.0 | 2.0 | 0.00 | 0.01 | 0.00 | 94 | 1015.7 |
| 20260901075026 | 72 | 0 | 0.0 | 2.0 | 0.00 | 0.01 | 0.00 | 94 | 1015.7 |
| 20260901074546 | 72 | 0 | 0.0 | 1.0 | 0.00 | 0.01 | 0.00 | 94 | 1015.8 |
| 20260901074025 | 72 | 0 | 0.0 | 2.0 | 0.00 | 0.01 | 0.00 | 94 | 1015.7 |
| 20260901073525 | 72 | 0 | 0.0 | 2.0 | 0.00 | 0.01 | 0.00 | 94 | 1015.8 |
| 20260901073045 | 72 | 200 | 0.0 | 2.0 | 0.00 | 0.01 | 0.00 | 94 | 1015.8 |
| 20260901072528 | 72 | 0 | 0.0 | 1.0 | 0.00 | 0.01 | 0.00 | 94 | 1015.9 |
| 20260901072027 | 72 | 0 | 0.0 | 2.0 | 0.00 | 0.01 | 0.00 | 94 | 1016.0 |
| 20260901071547 | 72 | 252 | 0.0 | 2.0 | 0.00 | 0.01 | 0.00 | 94 | 1016.1 |
| 20260901071031 | 72 | 252 | 0.0 | 2.0 | 0.00 | 0.01 | 0.00 | 94 | 1015.9 |
| 20260901070526 | 72 | 259 | 0.0 | 2.0 | 0.00 | 0.01 | 0.00 | 94 | 1015.9 |
| 20260901070051 | 72 | 0 | 0.0 | 2.0 | 0.00 | 0.01 | 0.00 | 94 | 1016.0 |
| 20260901065529 | 72 | 230 | 0.0 | 2.0 | 0.00 | 0.01 | 0.00 | 94 | 1016.1 |
| 20260901065024 | 72 | 106 | 0.0 | 7.0 | 0.00 | 0.01 | 0.00 | 94 | 1016.1 |
| 20260901064546 | 72 | 142 | 0.0 | 7.0 | 0.00 | 0.01 | 0.00 | 94 | 1016.2 |
| 20260901064028 | 72 | 125 | 0.0 | 3.0 | 0.00 | 0.01 | 0.00 | 94 | 1016.2 |
| 20260901063525 | 72 | 238 | 1.0 | 3.0 | 0.00 | 0.01 | 0.00 | 94 | 1016.2 |
| 20260901063055 | 72 | 250 | 0.0 | 3.0 | 0.00 | 0.01 | 0.00 | 93 | 1016.3 |
| 20260901062526 | 72 | 0 | 1.0 | 3.0 | 0.00 | 0.01 | 0.00 | 93 | 1016.2 |
| 20260901062026 | 72 | 224 | 0.0 | 1.0 | 0.00 | 0.01 | 0.00 | 93 | 1016.3 |
| 20260901061600 | 72 | 226 | 0.0 | 1.0 | 0.00 | 0.01 | 0.00 | 93 | 1016.3 |
| 20260901061028 | 72 | 0 | 0.0 | 1.0 | 0.00 | 0.01 | 0.00 | 93 | 1016.4 |
| 20260901060527 | 72 | 243 | 0.0 | 1.0 | 0.00 | 0.01 | 0.00 | 93 | 1016.4 |
| 20260901060050 | 72 | 0 | 0.0 | 2.0 | 0.00 | 0.01 | 0.00 | 93 | 1016.5 |
| 20260901055527 | 72 | 0 | 0.0 | 2.0 | 0.00 | 0.01 | 0.00 | 93 | 1016.5 |
| 20260901055026 | 72 | 209 | 0.0 | 3.0 | 0.00 | 0.01 | 0.00 | 93 | 1016.5 |
| 20260901054820 | 72 | 218 | 0.0 | 4.0 | 0.00 | 0.01 | 0.00 | 93 | 1016.6 |
| 20260901054027 | 72 | 190 | 0.0 | 4.0 | 0.00 | 0.01 | 0.00 | 93 | 1016.6 |
| 20260901053526 | 72 | 172 | 0.0 | 2.0 | 0.00 | 0.01 | 0.00 | 93 | 1016.7 |
| 20260901053049 | 72 | 205 | 0.0 | 1.0 | 0.00 | 0.01 | 0.00 | 93 | 1016.8 |
| 20260901052524 | 72 | 204 | 0.0 | 1.0 | 0.00 | 0.01 | 0.00 | 93 | 1016.9 |
| 20260901052027 | 72 | 0 | 0.0 | 1.0 | 0.00 | 0.01 | 0.00 | 92 | 1017.0 |
| 20260901051545 | 72 | 0 | 0.0 | 1.0 | 0.00 | 0.01 | 0.00 | 92 | 1017.0 |
| 20260901051031 | 72 | 0 | 0.0 | 1.0 | 0.00 | 0.01 | 0.00 | 92 | 1017.1 |
| 20260901050524 | 72 | 0 | 0.0 | 1.0 | 0.00 | 0.01 | 0.00 | 92 | 1017.0 |
| 20260901050052 | 72 | 0 | 0.0 | 1.0 | 0.00 | 0.01 | 0.00 | 92 | 1017.0 |
| 20260901045530 | 72 | 0 | 0.0 | 1.0 | 0.00 | 0.01 | 0.00 | 92 | 1017.0 |
| 20260901045026 | 72 | 0 | 0.0 | 1.0 | 0.00 | 0.01 | 0.00 | 92 | 1017.1 |
| 20260901044606 | 72 | 0 | 0.0 | 0.0 | 0.00 | 0.01 | 0.00 | 92 | 1017.2 |
| 20260901044024 | 72 | 0 | 0.0 | 0.0 | 0.00 | 0.01 | 0.00 | 92 | 1017.3 |
| 20260901043524 | 72 | 0 | 0.0 | 1.0 | 0.00 | 0.01 | 0.00 | 92 | 1017.2 |
| 20260901043046 | 72 | 0 | 0.0 | 1.0 | 0.00 | 0.01 | 0.00 | 92 | 1017.3 |
| 20260901042527 | 72 | 0 | 0.0 | 1.0 | 0.00 | 0.01 | 0.00 | 92 | 1017.3 |
| 20260901042024 | 72 | 209 | 0.0 | 0.0 | 0.00 | 0.01 | 0.00 | 92 | 1017.3 |
| 20260901041545 | 72 | 0 | 0.0 | 0.0 | 0.00 | 0.01 | 0.00 | 91 | 1017.3 |
| 20260901041028 | 72 | 0 | 0.0 | 0.0 | 0.00 | 0.01 | 0.00 | 91 | 1017.4 |
| 20260901040525 | 72 | 0 | 0.0 | 1.0 | 0.00 | 0.01 | 0.00 | 91 | 1017.3 |
| 20260901040103 | 72 | 0 | 0.0 | 1.0 | 0.00 | 0.01 | 0.00 | 91 | 1017.3 |
| 20260901035527 | 72 | 0 | 0.0 | 1.0 | 0.00 | 0.10 | 0.01 | 91 | 1017.3 |
| 20260901035028 | 72 | 0 | 0.0 | 1.0 | 0.00 | 0.10 | 0.01 | 91 | 1017.1 |
| 20260901034547 | 72 | 208 | 0.0 | 1.0 | 0.00 | 0.10 | 0.01 | 91 | 1017.2 |
| 20260901034024 | 72 | 0 | 0.0 | 1.0 | 0.00 | 0.10 | 0.01 | 91 | 1017.3 |
| 20260901033524 | 72 | 0 | 0.0 | 1.0 | 0.00 | 0.10 | 0.01 | 91 | 1017.4 |
| 20260901033046 | 72 | 0 | 0.0 | 1.0 | 0.00 | 0.10 | 0.01 | 91 | 1017.4 |
| 20260901032524 | 72 | 0 | 0.0 | 2.0 | 0.00 | 0.10 | 0.01 | 91 | 1017.4 |
| 20260901032024 | 72 | 223 | 0.0 | 2.0 | 0.00 | 0.10 | 0.01 | 91 | 1017.2 |
| 20260901031545 | 72 | 0 | 0.0 | 3.0 | 0.00 | 0.10 | 0.01 | 91 | 1017.3 |
| 20260901031025 | 72 | 170 | 0.0 | 3.0 | 0.00 | 0.10 | 0.01 | 91 | 1017.2 |
| 20260901030527 | 72 | 221 | 0.0 | 3.0 | 0.00 | 0.10 | 0.01 | 90 | 1017.3 |
| 20260901030050 | 72 | 0 | 0.0 | 2.0 | 0.00 | 0.10 | 0.01 | 90 | 1017.3 |
| 20260901025527 | 72 | 0 | 0.0 | 2.0 | 0.00 | 0.10 | 0.01 | 90 | 1017.1 |
| 20260901025028 | 72 | 226 | 1.0 | 2.0 | 0.00 | 0.10 | 0.01 | 90 | 1017.4 |
| 20260901024557 | 72 | 203 | 0.0 | 2.0 | 0.00 | 0.10 | 0.01 | 90 | 1017.3 |
| 20260901024025 | 72 | 207 | 0.0 | 2.0 | 0.00 | 0.10 | 0.01 | 90 | 1017.4 |
| 20260901023524 | 72 | 215 | 0.0 | 2.0 | 0.00 | 0.10 | 0.01 | 90 | 1017.5 |
| 20260901023049 | 72 | 152 | 0.0 | 2.0 | 0.00 | 0.10 | 0.01 | 90 | 1017.5 |
| 20260901022528 | 73 | 236 | 0.0 | 2.0 | 0.00 | 0.10 | 0.01 | 89 | 1017.7 |
| 20260901022024 | 73 | 164 | 0.0 | 3.0 | 0.00 | 0.10 | 0.01 | 89 | 1017.6 |
| 20260901021604 | 73 | 0 | 0.0 | 3.0 | 0.00 | 0.10 | 0.01 | 89 | 1017.7 |
| 20260901021024 | 73 | 0 | 0.0 | 3.0 | 0.00 | 0.10 | 0.01 | 89 | 1017.6 |
| 20260901020528 | 73 | 0 | 1.0 | 4.0 | 0.00 | 0.10 | 0.01 | 89 | 1017.6 |
| 20260901020049 | 73 | 248 | 1.0 | 5.0 | 0.00 | 0.10 | 0.01 | 89 | 1017.6 |
| 20260901015527 | 73 | 0 | 0.0 | 5.0 | 0.00 | 0.10 | 0.01 | 89 | 1017.5 |
| 20260901015027 | 73 | 203 | 1.0 | 5.0 | 0.00 | 0.10 | 0.01 | 89 | 1017.5 |
| 20260901014552 | 73 | 0 | 0.0 | 2.0 | 0.00 | 0.10 | 0.01 | 89 | 1017.5 |
| 20260901014025 | 73 | 207 | 1.0 | 6.0 | 0.00 | 0.10 | 0.01 | 88 | 1017.6 |
| 20260901013526 | 73 | 0 | 0.0 | 6.0 | 0.00 | 0.10 | 0.01 | 88 | 1017.5 |
| 20260901013046 | 73 | 153 | 0.0 | 2.0 | 0.00 | 0.10 | 0.01 | 88 | 1017.5 |
| 20260901012528 | 73 | 166 | 0.0 | 3.0 | 0.00 | 0.10 | 0.01 | 88 | 1017.5 |
| 20260901012026 | 73 | 0 | 1.0 | 3.0 | 0.00 | 0.10 | 0.01 | 88 | 1017.6 |
| 20260901011552 | 74 | 132 | 0.0 | 3.0 | 0.00 | 0.10 | 0.01 | 88 | 1017.5 |
| 20260901011032 | 74 | 148 | 1.0 | 2.0 | 0.00 | 0.10 | 0.01 | 87 | 1017.6 |
| 20260901010527 | 74 | 0 | 0.0 | 4.0 | 0.00 | 0.10 | 0.01 | 87 | 1017.5 |
| 20260901010052 | 74 | 173 | 0.0 | 4.0 | 0.00 | 0.10 | 0.01 | 87 | 1017.5 |
| 20260901005528 | 74 | 167 | 0.0 | 4.0 | 0.00 | 0.10 | 0.01 | 87 | 1017.5 |
| 20260901005026 | 74 | 153 | 0.0 | 3.0 | 0.00 | 0.10 | 0.01 | 86 | 1017.5 |
| 20260901004549 | 74 | 225 | 0.0 | 4.0 | 0.00 | 0.10 | 0.01 | 86 | 1017.4 |
| 20260901004024 | 74 | 165 | 1.0 | 4.0 | 0.00 | 0.10 | 0.01 | 86 | 1017.4 |
| 20260901003524 | 74 | 113 | 0.0 | 3.0 | 0.00 | 0.10 | 0.01 | 85 | 1017.3 |
| 20260901003047 | 74 | 150 | 1.0 | 4.0 | 0.00 | 0.10 | 0.01 | 85 | 1017.3 |
| 20260901002526 | 75 | 122 | 1.0 | 5.0 | 0.00 | 0.10 | 0.01 | 83 | 1017.2 |
| 20260901002027 | 74 | 144 | 2.0 | 5.0 | 0.00 | 0.10 | 0.01 | 83 | 1017.1 |
| 20260901001552 | 74 | 161 | 0.0 | 3.0 | 0.00 | 0.10 | 0.01 | 81 | 1017.1 |
| 20260901001027 | 74 | 0 | 0.0 | 0.0 | 0.00 | 0.10 | 0.01 | 83 | 1017.0 |
| 20260901000524 | 74 | 0 | 0.0 | 0.0 | 0.00 | 0.10 | 0.01 | 82 | 1016.9 |
| 20260901000051 | 74 | 0 | 0.0 | 0.0 | 0.00 | 0.10 | 0.01 | 82 | 1016.9 |
| 20260831235526 | 74 | 0 | 0.0 | 0.0 | 0.00 | 0.10 | 0.01 | 82 | 1017.0 |
| 20260831235024 | 75 | 0 | 0.0 | 0.0 | 0.00 | 0.10 | 0.01 | 82 | 1017.0 |
| 20260831234544 | 75 | 0 | 0.0 | 0.0 | 0.00 | 0.10 | 0.01 | 81 | 1017.1 |
| 20260831234028 | 75 | 0 | 0.0 | 0.0 | 0.00 | 0.10 | 0.01 | 81 | 1017.3 |
| 20260831233528 | 75 | 0 | 0.0 | 0.0 | 0.00 | 0.10 | 0.01 | 80 | 1017.3 |
| 20260831233050 | 76 | 0 | 0.0 | 0.0 | 0.00 | 0.10 | 0.01 | 80 | 1017.3 |
| 20260831232528 | 76 | 0 | 0.0 | 0.0 | 0.00 | 0.10 | 0.01 | 79 | 1017.3 |
| 20260831232032 | 76 | 0 | 0.0 | 0.0 | 0.00 | 0.10 | 0.01 | 80 | 1017.4 |
| 20260831231601 | 76 | 0 | 0.0 | 0.0 | 0.00 | 0.10 | 0.01 | 79 | 1017.4 |
| 20260831231025 | 76 | 0 | 0.0 | 0.0 | 0.00 | 0.10 | 0.01 | 79 | 1017.3 |
| 20260831230525 | 76 | 0 | 0.0 | 0.0 | 0.00 | 0.10 | 0.01 | 77 | 1017.3 |
| 20260831230051 | 77 | 0 | 0.0 | 0.0 | 0.00 | 0.10 | 0.01 | 77 | 1017.3 |
| 20260831225529 | 77 | 0 | 0.0 | 1.0 | 0.00 | 0.10 | 0.01 | 77 | 1017.3 |
| 20260831225028 | 77 | 0 | 0.0 | 1.0 | 0.00 | 0.10 | 0.01 | 75 | 1017.4 |
| 20260831224611 | 77 | 282 | 0.0 | 1.0 | 0.00 | 0.10 | 0.01 | 75 | 1017.4 |
| 20260831224025 | 77 | 0 | 0.0 | 0.0 | 0.00 | 0.10 | 0.01 | 75 | 1017.5 |
| 20260831223525 | 78 | 0 | 0.0 | 0.0 | 0.00 | 0.10 | 0.01 | 75 | 1017.6 |
| 20260831223044 | 78 | 0 | 0.0 | 0.0 | 0.00 | 0.10 | 0.01 | 76 | 1017.6 |
| 20260831222524 | 78 | 0 | 0.0 | 0.0 | 0.00 | 0.10 | 0.01 | 76 | 1017.6 |
| 20260831222029 | 78 | 0 | 0.0 | 0.0 | 0.00 | 0.10 | 0.01 | 77 | 1017.6 |
| 20260831221554 | 78 | 0 | 0.0 | 0.0 | 0.00 | 0.10 | 0.01 | 77 | 1017.7 |
| 20260831221027 | 78 | 0 | 0.0 | 0.0 | 0.00 | 0.10 | 0.01 | 75 | 1017.7 |
| 20260831220527 | 79 | 0 | 0.0 | 1.0 | 0.00 | 0.10 | 0.01 | 75 | 1017.7 |
| 20260831220052 | 79 | 0 | 0.0 | 1.0 | 0.00 | 0.10 | 0.01 | 73 | 1017.8 |
| 20260831215525 | 79 | 0 | 0.0 | 1.0 | 0.00 | 0.10 | 0.01 | 73 | 1017.6 |
| 20260831215025 | 79 | 0 | 0.0 | 1.0 | 0.00 | 0.10 | 0.01 | 71 | 1017.7 |
| 20260831214549 | 80 | 0 | 0.0 | 1.0 | 0.00 | 0.10 | 0.01 | 71 | 1017.8 |
| 20260831214030 | 80 | 0 | 0.0 | 1.0 | 0.00 | 0.10 | 0.01 | 70 | 1017.8 |
| 20260831213525 | 80 | 0 | 0.0 | 0.0 | 0.00 | 0.10 | 0.01 | 69 | 1017.9 |
| 20260831213045 | 80 | 0 | 0.0 | 1.0 | 0.00 | 0.10 | 0.01 | 68 | 1017.9 |
| 20260831212527 | 80 | 0 | 0.0 | 1.0 | 0.00 | 0.10 | 0.01 | 68 | 1017.8 |
| 20260831212031 | 80 | 0 | 0.0 | 1.0 | 0.00 | 0.10 | 0.01 | 67 | 1017.8 |
| 20260831211604 | 80 | 0 | 0.0 | 1.0 | 0.00 | 0.10 | 0.01 | 67 | 1017.7 |
| 20260831211027 | 80 | 293 | 0.0 | 1.0 | 0.00 | 0.10 | 0.01 | 66 | 1017.8 |
| 20260831210524 | 80 | 296 | 0.0 | 3.0 | 0.00 | 0.10 | 0.01 | 67 | 1017.8 |
| 20260831210052 | 80 | 0 | 0.0 | 3.0 | 0.00 | 0.10 | 0.01 | 67 | 1017.8 |
| 20260831205525 | 80 | 346 | 0.0 | 2.0 | 0.00 | 0.10 | 0.01 | 66 | 1017.8 |
| 20260831205024 | 81 | 0 | 0.0 | 1.0 | 0.00 | 0.10 | 0.01 | 66 | 1017.7 |
| 20260831204545 | 80 | 0 | 0.0 | 1.0 | 0.00 | 0.10 | 0.01 | 67 | 1017.8 |
| 20260831204025 | 80 | 291 | 0.0 | 1.0 | 0.00 | 0.10 | 0.01 | 66 | 1017.8 |
| 20260831203526 | 80 | 0 | 0.0 | 1.0 | 0.00 | 0.10 | 0.01 | 67 | 1017.8 |
| 20260831203046 | 79 | 338 | 0.0 | 1.0 | 0.00 | 0.10 | 0.01 | 70 | 1017.8 |
| 20260831202527 | 79 | 0 | 0.0 | 1.0 | 0.00 | 0.10 | 0.01 | 72 | 1018.0 |
| 20260831202027 | 79 | 0 | 0.0 | 1.0 | 0.00 | 0.10 | 0.01 | 71 | 1018.1 |
| 20260831201556 | 80 | 333 | 0.0 | 1.0 | 0.00 | 0.10 | 0.01 | 69 | 1018.0 |
| 20260831201026 | 80 | 333 | 0.0 | 1.0 | 0.00 | 0.10 | 0.01 | 68 | 1018.0 |
| 20260831200524 | 80 | 0 | 0.0 | 1.0 | 0.00 | 0.10 | 0.01 | 69 | 1018.0 |
| 20260831200047 | 80 | 0 | 0.0 | 1.0 | 0.00 | 0.10 | 0.01 | 68 | 1017.9 |
| 20260831195524 | 80 | 31 | 0.0 | 2.0 | 0.00 | 0.10 | 0.01 | 67 | 1018.0 |
| 20260831195027 | 79 | 0 | 0.0 | 2.0 | 0.00 | 0.10 | 0.01 | 69 | 1018.2 |
| 20260831194555 | 79 | 346 | 1.0 | 2.0 | 0.00 | 0.10 | 0.01 | 69 | 1018.2 |
| 20260831194028 | 79 | 0 | 0.0 | 2.0 | 0.00 | 0.10 | 0.01 | 70 | 1018.4 |
| 20260831193527 | 79 | 323 | 0.0 | 2.0 | 0.00 | 0.10 | 0.01 | 69 | 1018.5 |
| 20260831193058 | 79 | 288 | 0.0 | 2.0 | 0.00 | 0.10 | 0.01 | 70 | 1018.6 |
| 20260831192526 | 79 | 295 | 0.0 | 2.0 | 0.00 | 0.10 | 0.01 | 70 | 1018.7 |
| 20260831192027 | 80 | 278 | 0.0 | 2.0 | 0.00 | 0.10 | 0.01 | 70 | 1018.7 |
| 20260831191550 | 80 | 298 | 0.0 | 2.0 | 0.00 | 0.10 | 0.01 | 70 | 1018.7 |
| 20260831191027 | 79 | 294 | 0.0 | 2.0 | 0.00 | 0.10 | 0.01 | 69 | 1018.7 |
| 20260831190524 | 79 | 273 | 0.0 | 1.0 | 0.00 | 0.10 | 0.01 | 70 | 1018.7 |
| 20260831190051 | 80 | 271 | 0.0 | 1.0 | 0.00 | 0.10 | 0.01 | 70 | 1018.8 |
| 20260831185525 | 80 | 0 | 0.0 | 2.0 | 0.00 | 0.10 | 0.01 | 70 | 1018.8 |
| 20260831185024 | 80 | 0 | 1.0 | 3.0 | 0.00 | 0.10 | 0.01 | 69 | 1018.8 |
| 20260831184549 | 80 | 269 | 1.0 | 3.0 | 0.00 | 0.10 | 0.01 | 68 | 1018.6 |
| 20260831184024 | 80 | 278 | 0.0 | 2.0 | 0.00 | 0.10 | 0.01 | 66 | 1018.7 |
| 20260831183527 | 81 | 309 | 0.0 | 2.0 | 0.00 | 0.10 | 0.01 | 66 | 1018.7 |
| 20260831183052 | 81 | 273 | 0.0 | 2.0 | 0.00 | 0.10 | 0.01 | 65 | 1018.6 |
| 20260831182528 | 81 | 284 | 0.0 | 1.0 | 0.00 | 0.10 | 0.01 | 65 | 1018.6 |
| 20260831182029 | 81 | 300 | 0.0 | 1.0 | 0.00 | 0.10 | 0.01 | 65 | 1018.7 |
| 20260831181551 | 81 | 0 | 0.0 | 3.0 | 0.00 | 0.10 | 0.01 | 63 | 1018.7 |
| 20260831181029 | 81 | 0 | 1.0 | 6.0 | 0.00 | 0.10 | 0.01 | 63 | 1018.8 |
| 20260831180531 | 81 | 134 | 0.0 | 6.0 | 0.00 | 0.10 | 0.01 | 63 | 1018.8 |
| 20260831180049 | 82 | 266 | 2.0 | 6.0 | 0.00 | 0.10 | 0.01 | 62 | 1018.9 |
| 20260831175529 | 82 | 0 | 1.0 | 4.0 | 0.00 | 0.10 | 0.01 | 63 | 1018.8 |
| 20260831175030 | 82 | 78 | 1.0 | 4.0 | 0.00 | 0.10 | 0.01 | 61 | 1018.9 |
| 20260831174552 | 81 | 153 | 1.0 | 2.0 | 0.00 | 0.10 | 0.01 | 65 | 1018.9 |
| 20260831174027 | 81 | 0 | 0.0 | 1.0 | 0.00 | 0.10 | 0.01 | 66 | 1019.0 |
| 20260831173530 | 81 | 242 | 0.0 | 2.0 | 0.00 | 0.10 | 0.01 | 65 | 1018.9 |
| 20260831173048 | 80 | 0 | 0.0 | 3.0 | 0.00 | 0.10 | 0.01 | 66 | 1019.0 |
| 20260831172529 | 80 | 247 | 1.0 | 4.0 | 0.00 | 0.10 | 0.01 | 65 | 1018.8 |
| 20260831172032 | 81 | 275 | 1.0 | 4.0 | 0.00 | 0.10 | 0.01 | 65 | 1018.9 |
| 20260831171547 | 81 | 205 | 2.0 | 4.0 | 0.00 | 0.10 | 0.01 | 65 | 1019.1 |
| 20260831171030 | 81 | 217 | 1.0 | 4.0 | 0.00 | 0.10 | 0.01 | 65 | 1019.0 |
| 20260831170530 | 81 | 267 | 1.0 | 4.0 | 0.00 | 0.10 | 0.01 | 64 | 1019.2 |
| 20260831170104 | 80 | 0 | 1.0 | 3.0 | 0.00 | 0.10 | 0.01 | 66 | 1019.1 |
| 20260831165529 | 80 | 88 | 1.0 | 3.0 | 0.00 | 0.10 | 0.01 | 66 | 1019.2 |
| 20260831165030 | 80 | 40 | 0.0 | 5.0 | 0.00 | 0.10 | 0.01 | 65 | 1019.3 |
| 20260831164554 | 80 | 91 | 1.0 | 5.0 | 0.00 | 0.10 | 0.01 | 67 | 1019.4 |
| 20260831164028 | 80 | 46 | 0.0 | 4.0 | 0.00 | 0.10 | 0.01 | 66 | 1019.3 |
| 20260831163530 | 80 | 146 | 1.0 | 4.0 | 0.00 | 0.10 | 0.01 | 67 | 1019.2 |
| 20260831163048 | 80 | 244 | 1.0 | 4.0 | 0.00 | 0.10 | 0.01 | 66 | 1019.2 |
| 20260831162532 | 80 | 71 | 2.0 | 3.0 | 0.00 | 0.10 | 0.01 | 67 | 1019.2 |
| 20260831162027 | 79 | 260 | 1.0 | 3.0 | 0.00 | 0.10 | 0.01 | 64 | 1019.2 |
| 20260831161600 | 79 | 261 | 1.0 | 3.0 | 0.00 | 0.10 | 0.01 | 65 | 1019.2 |
| 20260831161028 | 79 | 125 | 0.0 | 3.0 | 0.00 | 0.10 | 0.01 | 65 | 1019.3 |
| 20260831160528 | 79 | 111 | 2.0 | 4.0 | 0.00 | 0.10 | 0.01 | 67 | 1019.3 |
| 20260831160054 | 79 | 116 | 2.0 | 7.0 | 0.00 | 0.10 | 0.01 | 70 | 1019.3 |
| 20260831155531 | 78 | 156 | 0.0 | 7.0 | 0.00 | 0.10 | 0.01 | 71 | 1019.1 |
| 20260831155033 | 78 | 80 | 1.0 | 4.0 | 0.00 | 0.10 | 0.01 | 70 | 1019.1 |
| 20260831154623 | 78 | 138 | 1.0 | 4.0 | 0.00 | 0.10 | 0.01 | 71 | 1019.2 |
| 20260831154029 | 78 | 0 | 0.0 | 4.0 | 0.00 | 0.10 | 0.01 | 72 | 1019.2 |
| 20260831153529 | 77 | 0 | 2.0 | 4.0 | 0.00 | 0.10 | 0.01 | 69 | 1019.2 |
| 20260831153052 | 77 | 141 | 1.0 | 4.0 | 0.00 | 0.10 | 0.01 | 71 | 1019.3 |
| 20260831152529 | 78 | 0 | 1.0 | 5.0 | 0.00 | 0.10 | 0.01 | 71 | 1019.3 |
| 20260831152027 | 78 | 44 | 1.0 | 5.0 | 0.00 | 0.10 | 0.01 | 71 | 1019.4 |
| 20260831151605 | 77 | 166 | 1.0 | 5.0 | 0.00 | 0.10 | 0.01 | 72 | 1019.4 |
| 20260831151029 | 77 | 115 | 0.0 | 2.0 | 0.00 | 0.10 | 0.01 | 74 | 1019.4 |
| 20260831150529 | 76 | 99 | 1.0 | 4.0 | 0.00 | 0.10 | 0.01 | 75 | 1019.5 |
| 20260831150049 | 75 | 43 | 1.0 | 6.0 | 0.00 | 0.10 | 0.01 | 78 | 1019.4 |
| 20260831145528 | 75 | 137 | 1.0 | 6.0 | 0.00 | 0.10 | 0.01 | 77 | 1019.4 |
| 20260831145032 | 75 | 105 | 0.0 | 3.0 | 0.00 | 0.10 | 0.01 | 77 | 1019.5 |
| 20260831144554 | 75 | 0 | 1.0 | 3.0 | 0.00 | 0.10 | 0.01 | 78 | 1019.4 |
| 20260831144030 | 75 | 42 | 1.0 | 4.0 | 0.00 | 0.10 | 0.01 | 78 | 1019.5 |
| 20260831143528 | 74 | 261 | 1.0 | 4.0 | 0.00 | 0.10 | 0.01 | 79 | 1019.4 |
| 20260831143047 | 74 | 123 | 1.0 | 6.0 | 0.00 | 0.10 | 0.01 | 78 | 1019.5 |
| 20260831142525 | 74 | 145 | 2.0 | 6.0 | 0.00 | 0.10 | 0.01 | 79 | 1019.5 |
| 20260831142028 | 74 | 117 | 2.0 | 6.0 | 0.00 | 0.10 | 0.01 | 78 | 1019.5 |
| 20260831141549 | 74 | 0 | 0.0 | 3.0 | 0.00 | 0.10 | 0.01 | 80 | 1019.5 |
| 20260831141026 | 74 | 97 | 0.0 | 2.0 | 0.00 | 0.10 | 0.01 | 80 | 1019.5 |
| 20260831140528 | 74 | 84 | 0.0 | 3.0 | 0.00 | 0.10 | 0.01 | 81 | 1019.4 |
| 20260831140046 | 73 | 0 | 0.0 | 3.0 | 0.00 | 0.10 | 0.01 | 83 | 1019.4 |
| 20260831135529 | 73 | 135 | 1.0 | 3.0 | 0.00 | 0.10 | 0.01 | 82 | 1019.4 |
| 20260831135028 | 73 | 85 | 1.0 | 3.0 | 0.00 | 0.10 | 0.01 | 82 | 1019.4 |
| 20260831134555 | 73 | 104 | 0.0 | 4.0 | 0.00 | 0.10 | 0.01 | 84 | 1019.4 |
| 20260831134028 | 73 | 0 | 2.0 | 4.0 | 0.00 | 0.10 | 0.01 | 82 | 1019.4 |
| 20260831133525 | 73 | 108 | 0.0 | 4.0 | 0.00 | 0.10 | 0.01 | 83 | 1019.4 |
| 20260831133045 | 73 | 0 | 1.0 | 4.0 | 0.00 | 0.10 | 0.01 | 83 | 1019.5 |
| 20260831132526 | 73 | 116 | 0.0 | 3.0 | 0.00 | 0.10 | 0.01 | 84 | 1019.4 |
| 20260831132027 | 72 | 95 | 1.0 | 3.0 | 0.00 | 0.10 | 0.01 | 85 | 1019.4 |
| 20260831131607 | 72 | 49 | 1.0 | 3.0 | 0.00 | 0.10 | 0.01 | 86 | 1019.4 |
| 20260831131027 | 72 | 46 | 0.0 | 1.0 | 0.00 | 0.10 | 0.01 | 89 | 1019.5 |
| 20260831130527 | 72 | 0 | 0.0 | 1.0 | 0.00 | 0.10 | 0.01 | 89 | 1019.4 |
| 20260831130106 | 72 | 0 | 0.0 | 2.0 | 0.00 | 0.10 | 0.01 | 90 | 1019.4 |
| 20260831125525 | 72 | 0 | 0.0 | 2.0 | 0.00 | 0.10 | 0.01 | 91 | 1019.4 |
| 20260831125029 | 71 | 119 | 1.0 | 2.0 | 0.00 | 0.10 | 0.01 | 90 | 1019.3 |
| 20260831124550 | 71 | 115 | 0.0 | 2.0 | 0.00 | 0.10 | 0.01 | 92 | 1019.4 |
| 20260831124023 | 71 | 38 | 0.0 | 2.0 | 0.00 | 0.10 | 0.01 | 92 | 1019.5 |
| 20260831123524 | 71 | 108 | 0.0 | 1.0 | 0.00 | 0.10 | 0.01 | 92 | 1019.4 |
| 20260831123050 | 71 | 0 | 0.0 | 1.0 | 0.00 | 0.10 | 0.01 | 93 | 1019.4 |
| 20260831122528 | 71 | 0 | 0.0 | 1.0 | 0.00 | 0.10 | 0.01 | 93 | 1019.3 |
| 20260831122026 | 70 | 0 | 0.0 | 2.0 | 0.00 | 0.10 | 0.01 | 94 | 1019.3 |
| 20260831121550 | 70 | 125 | 1.0 | 2.0 | 0.00 | 0.10 | 0.01 | 94 | 1019.3 |
| 20260831121032 | 70 | 0 | 0.0 | 1.0 | 0.00 | 0.10 | 0.01 | 94 | 1019.3 |
| 20260831120528 | 70 | 0 | 0.0 | 1.0 | 0.00 | 0.10 | 0.01 | 95 | 1019.3 |
| 20260831120049 | 70 | 0 | 0.0 | 0.0 | 0.00 | 0.10 | 0.01 | 95 | 1019.3 |
| 20260831115528 | 70 | 0 | 0.0 | 0.0 | 0.00 | 0.10 | 0.01 | 95 | 1019.3 |
| 20260831115028 | 70 | 0 | 0.0 | 0.0 | 0.00 | 0.10 | 0.01 | 95 | 1019.2 |
| 20260831114549 | 70 | 0 | 0.0 | 0.0 | 0.01 | 0.10 | 0.01 | 95 | 1019.3 |
| 20260831114025 | 70 | 0 | 0.0 | 0.0 | 0.01 | 0.10 | 0.01 | 95 | 1019.3 |
| 20260831113524 | 70 | 0 | 0.0 | 0.0 | 0.01 | 0.10 | 0.01 | 95 | 1019.2 |
| 20260831113049 | 70 | 0 | 0.0 | 0.0 | 0.01 | 0.10 | 0.01 | 95 | 1019.1 |
| 20260831112526 | 70 | 0 | 0.0 | 1.0 | 0.01 | 0.10 | 0.01 | 95 | 1019.1 |
| 20260831112024 | 70 | 0 | 0.0 | 1.0 | 0.01 | 0.10 | 0.01 | 95 | 1018.9 |
| 20260831111543 | 70 | 0 | 0.0 | 1.0 | 0.01 | 0.10 | 0.01 | 95 | 1018.8 |
| 20260831111028 | 70 | 0 | 0.0 | 1.0 | 0.01 | 0.10 | 0.01 | 95 | 1018.8 |
| 20260831110529 | 70 | 0 | 0.0 | 1.0 | 0.01 | 0.10 | 0.01 | 95 | 1018.9 |
| 20260831110052 | 70 | 0 | 0.0 | 1.0 | 0.01 | 0.10 | 0.01 | 95 | 1018.8 |
| 20260831105528 | 70 | 47 | 0.0 | 1.0 | 0.01 | 0.10 | 0.01 | 95 | 1018.8 |
| 20260831105026 | 70 | 0 | 0.0 | 2.0 | 0.01 | 0.10 | 0.01 | 96 | 1018.8 |
| 20260831104549 | 70 | 0 | 0.0 | 2.0 | 0.00 | 0.09 | 0.00 | 95 | 1018.7 |